FALCON 9 R/B, 58699

Orbit data source: Space-Track

FALCON 9 R/B, 58699 is space debris in HEO originally from a launch on Wed, 03 Jan 2024 UTC launched from the Air Force Eastern Test Range (AFETR). Debris objects in space refer to the collection of defunct objects orbiting the Earth. Examples of debris include non-operational satellites, rocket bodies, and fragments generated from explosions, collisions, or faulty payload assembly.

Loading next visibility...
Identifier
58699, 2024-003B
Orbit
HEO
Country
Flag of USUS
Related business
Manufacturer
SpaceX
Mission
Spacecraft
Bus & Motor
F9ST2, Unknown motor
Mass
~3,000 kg wet, ~3,000 kg dry
Launch date (UTC)
2024-01-03 (2 years ago)
Launch vehicle
Unknown
Launch site
Air Force Eastern Test Range (AFETR)
Object type
Payload
Rocket body
Debris
Shape & HBR
Cyl, 7.8 m
Radar Cross Section
39.980 m², Large (>1 m²)

Expand to show TLE details & history
Last TLE update: 3 days ago

TLE from 3 days ago
0 FALCON 9 R/B
1 58699U 24003B   25346.95810874  .00021780  00000-0  42369-2 0  9992
2 58699  25.7670 106.1797 7748306 134.4994 323.2323  1.73341711 11958
Epoch: 2025-12-12T22:59Z
TLE epoch observation values (Epoch: 2025-12-12T22:59:40.595Z)
Latitude
0.00032°
Longitude
39.26455°
Altitude
19,232.709 km
Speed
4.184 km/s
True Right ascension
07h 04m 18s
True Declination
0° 00' 01"
Sunlit
Object was in daylight at epoch
Visualization orbit readout
Latitude
Unknown
Longitude
Unknown
Altitude
Unknown
Speed
Unknown
Apparent Right ascension
Unknown
Apparent Declination
Unknown
Sunlit
N/A
Visualization observer readout
Local Sidereal Time
13:26:12
Azimuth
Unknown
Elevation
Unknown
Doppler factor
Unknown
Orbital elements
Apogee altitude
45,583.992 km
Perigee altitude
214.2 km
Semi-major axis
29,277.233 km
Eccentricity
0.77483
Inclination
25.767°
RAAN
106.1797°
Arg. of periapsis
134.4994°
True anomaly
225.59287°
Mean anomaly
323.2323°
Eccentric anomaly
279.43882°
Mean motion
0.43326 °/min
Orbital period
830.91 mins
BSTAR
0.0042369
Loading maneuver chart data...
Computing Atmospheric mass density...
Loading historical data...
Loading historical data...
Loading historical data...
Loading historical data...
Loading historical data...
Loading historical data...
Loading historical data...
Other satellites on launch #3 in the year 2024 (2024-01-03 UTC)

Documentation

Showing up to 5 results
|